Location: Sungai Bunut
(2.6333°N, 113.7333°E)
Time: 05:10:22
(UTC+00:00)

N. Korean satellite - Visible Passes

Search period start: 28 January 2022 00:00
Search period end: 07 February 2022 00:00
Orbit: 447 x 490 km, 97.3° (Epoch: 27 January)

Date Brightness Start Highest point End Pass type
(mag) Time Alt. Az. Time Alt. Az. Time Alt. Az.
28 Jan 9.2 20:41:42 10° NE 20:44:23 20° E 20:47:04 10° SSE visible
29 Jan 7.4 21:44:58 10° NNW 21:48:05 28° WNW 21:51:11 10° SW visible
30 Jan 6.5 21:15:22 10° NNE 21:18:55 83° ESE 21:22:27 10° S visible
31 Jan 8.8 20:46:46 10° NE 20:49:42 24° E 20:52:37 10° SSE visible
01 Feb 7.6 21:50:29 10° NNW 21:53:22 23° WNW 21:56:13 10° SW visible
02 Feb 6.3 21:20:36 10° N 21:24:09 78° WNW 21:27:39 10° SSW visible
03 Feb 8.5 20:51:46 10° NE 20:54:54 29° E 20:57:59 10° SSE visible
04 Feb 7.9 21:55:56 10° NNW 21:58:30 19° WNW 22:01:03 10° SW visible
05 Feb 6.4 21:25:46 10° N 21:29:15 62° W 21:32:41 10° SSW visible
06 Feb 8.0 20:56:43 10° NNE 20:59:58 36° E 21:03:11 10° SSE visible
